User: anonymous
Location: Unspecified
(0.0000°N, 0.0000°E)
Time: 05:49:23
(UTC+02:00)
Language:

CZ-4 DEB - Orbit

View from above orbital plane
View from above orbital plane
View from above satellite
View from above satellite

Ground track
Ground track

The orbit data is extracted from the following two-line orbital elements,

1 29508U 06046D   14106.80827933  .00019400  00000-0  11942-2 0  5508
2 29508 097.7054 113.2905 0008577 135.6382 276.6186 15.10015354408052
Epoch (UTC): 16 April 2014 19:23:55
Eccentricity: 0.0008577
inclination: 97.7054°
perigee height: 530 km
apogee height: 542 km
right ascension of ascending node: 113.2905°
argument of perigee: 135.6382°
revolutions per day: 15.10015354
mean anomaly at epoch: 276.6186°
orbit number at epoch: 40805

The dashed part of the orbit path shows where the satellite is in the earth's shadow,  

DLR